Location: *
(52.2090°N, 4.1550°W)
Time: 08:44:28
(UTC+00:00)

Cosmos 1470 Rocket - Pass Details

Date: 19 July 2019
Orbit: 604 x 633 km, 82.5° (Epoch: 23 August)

Event Time Altitude Azimuth Distance (km) Brightness Sun altitude
Exits shadow 23:08:23 27° 171° (S) 1,201 4.4 -15.2°
Maximum altitude 23:10:42 65° 97° (E) 680 3.6 -15.3°
Drops below altitude 10° 23:15:05 10° 16° (NNE) 2,000 7.1 -15.5°
Sets 23:17:21 0° 13° (NNE) 2,916 8.1 -15.6°
